Location: Unspecified
(0.0000°N, 0.0000°E)
Time: 18:09:48
(UTC+00:00)

Vanguard 1 Rocket - Pass Details

Date: 17 April 2026
Orbit: 655 x 4212 km, 34.3° (Epoch: 17 May)

Event Time Altitude Azimuth Distance (km) Brightness Sun altitude
Rises 04:51:31 0° 315° (NW) 6,242 11.3 -16.7°
Reaches altitude 10° 04:56:47 10° 322° (NW) 4,603 10.7 -15.5°
Maximum altitude 05:06:58 39° 27° (NNE) 1,850 9.3 -12.9°
Drops below altitude 10° 05:12:47 10° 96° (E) 2,636 11.1 -11.5°
Sets 05:14:58 0° 104° (ESE) 3,360 11.6 -11.0°
